This is the latest recevied weather packets stored in our database for station/object VK6HGR-1. If no packets are shown the sender has not sent any weather packets the latest 1 day(s).
| Time | Temp. | Humidity | Pressure | Rain* | Wind** | Luminosity | Snow |
|---|---|---|---|---|---|---|---|
| 1778069715 | 17.22° C | 58% | 1026.4 hPa | - | - | - | - |
| 1778067912 | 18.33° C | 56% | 1026.1 hPa | - | - | - | - |
| 1778062514 | 20° C | 53% | 1025.6 hPa | - | - | - | - |
| 1778060714 | 21.11° C | 49% | 1025.1 hPa | - | - | - | - |
| 1778059811 | 21.11° C | 47% | 1025 hPa | - | - | - | - |
| 1778058911 | 21.67° C | 46% | 1024.8 hPa | - | - | - | - |
| 1778058011 | 22.22° C | 45% | 1024.7 hPa | - | - | - | - |
| 1778057112 | 22.22° C | 46% | 1024.7 hPa | - | - | - | - |
| 1778056212 | 22.78° C | 45% | 1024.7 hPa | - | - | - | - |
| 1778054411 | 23.33° C | 45% | 1024.7 hPa | - | - | - | - |
| 1778053513 | 23.33° C | 45% | 1024.6 hPa | - | - | - | - |
| 1778052614 | 23.33° C | 44% | 1024.5 hPa | - | - | - | - |
| 1778050813 | 23.33° C | 45% | 1024.6 hPa | - | - | - | - |
| 1778049911 | 23.33° C | 45% | 1024.6 hPa | - | - | - | - |
| 1778049011 | 23.89° C | 44% | 1024.6 hPa | - | - | - | - |
| 1778048111 | 23.89° C | 45% | 1024.6 hPa | - | - | - | - |
| 1778047473 | 23.89° C | 46% | 1024.7 hPa | - | - | - | - |
| 1778047212 | 23.89° C | 46% | 1024.7 hPa | - | - | - | - |
| 1778043611 | 23.33° C | 47% | 1025.1 hPa | - | - | - | - |
| 1778042713 | 22.78° C | 47% | 1025.2 hPa | - | - | - | - |
| 1778042066 | 22.78° C | 48% | 1025.5 hPa | - | - | - | - |
| 1778040914 | 22.78° C | 50% | 1025.7 hPa | - | - | - | - |
| 1778040011 | 22.22° C | 49% | 1026 hPa | - | - | - | - |
| 1778039115 | 22.22° C | 50% | 1026.1 hPa | - | - | - | - |
| 1778038212 | 21.67° C | 51% | 1026.2 hPa | - | - | - | - |
* Rain since midnight (hover to see other rain measurements)
** Current wind speed in m/s (hover to see current wind gust speed)